Location: Great Snoring
(52.8667°N, 0.8833°E)
Time: 00:41:33
(UTC+00:00)

Cosmos 2237 - Pass Details

Date: 19 May 2025
Orbit: 847 x 854 km, 70.8° (Epoch: 18 June)

Event Time Altitude Azimuth Distance (km) Brightness Sun altitude
Rises 22:48:45 0° 327° (NNW) 3,423 8.8 -15.8°
Reaches altitude 10° 22:51:13 10° 324° (NW) 2,484 7.8 -15.9°
Maximum altitude 22:56:52 66° 244° (WSW) 923 4.3 -16.1°
Enters shadow 23:00:06 26° 169° (S) 1,612 5.0 -16.3°
